IBE4671 LEBL-LEPA

Flight info

Callsign IBE4671
Flight time 0h 27m
Altitude 17000
Route LARPA N859 TOLSO
Aircraft A320/M-SDE3FGHIRWY/LB1

Departure

Time 2026-05-05 22:04
Airport Josep Tarradellas Barcelona-El Prat Airport (LEBL)

Arrival

Time 2026-05-05 22:31
Airport Palma de Mallorca Airport (LEPA)
Time Latitude Longitude Altitude Speed Heading
2026-05-05 22:04 41.29198 2.24243 5500 ft 234 kts 109°
2026-05-05 22:04 41.28683 2.26310 6321 ft 236 kts 109°
2026-05-05 22:04 41.28161 2.28402 7057 ft 240 kts 110°
2026-05-05 22:05 41.27624 2.30524 7779 ft 244 kts 112°
2026-05-05 22:05 41.26894 2.32622 8247 ft 261 kts 122°
2026-05-05 22:05 41.25642 2.34444 8584 ft 278 kts 152°
2026-05-05 22:05 41.23801 2.35253 9125 ft 282 kts 180°
2026-05-05 22:06 41.21854 2.35381 9913 ft 287 kts 182°
2026-05-05 22:06 41.19797 2.35488 10336 ft 307 kts 182°
2026-05-05 22:06 41.17580 2.35592 10595 ft 330 kts 182°
2026-05-05 22:06 41.15246 2.35703 11171 ft 339 kts 182°
2026-05-05 22:07 41.12869 2.35825 11934 ft 343 kts 181°
2026-05-05 22:07 41.10471 2.35960 12714 ft 346 kts 181°
2026-05-05 22:07 41.08056 2.36100 13491 ft 349 kts 181°
2026-05-05 22:07 41.05616 2.36238 14207 ft 351 kts 181°
2026-05-05 22:08 41.03165 2.36377 14925 ft 353 kts 182°
2026-05-05 22:08 41.00708 2.36515 15649 ft 354 kts 182°
2026-05-05 22:08 40.98238 2.36651 16357 ft 356 kts 183°
2026-05-05 22:08 40.95759 2.36790 16819 ft 357 kts 183°
2026-05-05 22:09 40.93289 2.36931 16923 ft 361 kts 183°
2026-05-05 22:09 40.90736 2.37073 16940 ft 368 kts 183°
2026-05-05 22:09 40.88197 2.37213 16941 ft 370 kts 183°
2026-05-05 22:09 40.85621 2.37353 16942 ft 370 kts 183°
2026-05-05 22:10 40.83061 2.37495 16939 ft 362 kts 183°
2026-05-05 22:10 40.80590 2.37641 16943 ft 354 kts 183°
2026-05-05 22:10 40.78162 2.37779 16939 ft 341 kts 184°
2026-05-05 22:10 40.75759 2.37908 16947 ft 356 kts 184°
2026-05-05 22:11 40.73238 2.38029 16946 ft 366 kts 184°
2026-05-05 22:11 40.70682 2.38159 16944 ft 368 kts 184°
2026-05-05 22:11 40.68118 2.38296 16948 ft 369 kts 184°
2026-05-05 22:11 40.65558 2.38437 16950 ft 368 kts 184°
2026-05-05 22:12 40.63028 2.38579 16953 ft 368 kts 184°
2026-05-05 22:12 40.60470 2.38725 16948 ft 368 kts 184°
2026-05-05 22:12 40.57903 2.38870 16949 ft 368 kts 184°
2026-05-05 22:12 40.55334 2.39012 16949 ft 368 kts 184°
2026-05-05 22:13 40.52772 2.39151 16947 ft 368 kts 184°
2026-05-05 22:13 40.50207 2.39363 16946 ft 372 kts 178°
2026-05-05 22:13 40.47656 2.40094 16947 ft 377 kts 172°
2026-05-05 22:13 40.45116 2.40978 16949 ft 377 kts 172°
2026-05-05 22:14 40.42610 2.41852 16951 ft 378 kts 172°
2026-05-05 22:14 40.40071 2.42741 16943 ft 378 kts 172°
2026-05-05 22:14 40.37526 2.43631 16947 ft 378 kts 172°
2026-05-05 22:14 40.34985 2.44514 16946 ft 378 kts 172°
2026-05-05 22:15 40.32443 2.45395 16943 ft 378 kts 172°
2026-05-05 22:15 40.29903 2.46274 16944 ft 378 kts 172°
2026-05-05 22:15 40.27359 2.47155 16941 ft 378 kts 172°
2026-05-05 22:15 40.24813 2.48049 16942 ft 380 kts 169°
2026-05-05 22:16 40.22353 2.49397 16939 ft 389 kts 157°
2026-05-05 22:16 40.20115 2.51473 16945 ft 399 kts 144°
2026-05-05 22:16 40.18243 2.54208 16896 ft 406 kts 131°
2026-05-05 22:16 40.16796 2.57354 16634 ft 399 kts 125°
2026-05-05 22:17 40.15441 2.60479 16374 ft 390 kts 125°
2026-05-05 22:17 40.14109 2.63534 16117 ft 384 kts 125°
2026-05-05 22:17 40.12793 2.66524 15860 ft 375 kts 126°
2026-05-05 22:17 40.11501 2.69443 15612 ft 367 kts 126°
2026-05-05 22:18 40.10230 2.72298 15370 ft 359 kts 126°
2026-05-05 22:18 40.08998 2.75062 15112 ft 353 kts 126°
2026-05-05 22:18 40.07776 2.77807 14867 ft 346 kts 126°
2026-05-05 22:18 40.06576 2.80506 14627 ft 341 kts 126°
2026-05-05 22:19 40.05394 2.83163 14380 ft 335 kts 126°
2026-05-05 22:19 40.04235 2.85772 14152 ft 330 kts 126°
2026-05-05 22:19 40.03086 2.88352 13791 ft 330 kts 125°
2026-05-05 22:19 40.01942 2.90920 13517 ft 325 kts 125°
2026-05-05 22:20 40.00806 2.93466 13141 ft 324 kts 125°
2026-05-05 22:20 39.99672 2.96003 12777 ft 323 kts 125°
2026-05-05 22:20 39.98541 2.98528 12406 ft 322 kts 125°
2026-05-05 22:20 39.97416 3.01039 12048 ft 320 kts 125°
2026-05-05 22:21 39.96300 3.03529 11524 ft 316 kts 124°
2026-05-05 22:21 39.95213 3.05954 11273 ft 301 kts 124°
2026-05-05 22:21 39.94093 3.08136 11067 ft 283 kts 136°
2026-05-05 22:21 39.92577 3.09792 10344 ft 288 kts 155°
2026-05-05 22:22 39.90715 3.10744 9789 ft 288 kts 172°
2026-05-05 22:22 39.88742 3.10943 9331 ft 282 kts 188°
2026-05-05 22:22 39.86784 3.10705 8849 ft 283 kts 189°
2026-05-05 22:22 39.84833 3.10467 8448 ft 282 kts 189°
2026-05-05 22:23 39.82915 3.10235 8053 ft 279 kts 189°
2026-05-05 22:23 39.80989 3.10001 7663 ft 277 kts 189°
2026-05-05 22:23 39.79075 3.09765 7290 ft 275 kts 189°
2026-05-05 22:23 39.77176 3.09528 6990 ft 271 kts 189°
2026-05-05 22:24 39.75355 3.09305 6956 ft 255 kts 189°
2026-05-05 22:24 39.73693 3.08868 6951 ft 233 kts 210°
2026-05-05 22:24 39.72521 3.07562 6960 ft 220 kts 236°
2026-05-05 22:24 39.71694 3.05890 6961 ft 220 kts 239°
2026-05-05 22:25 39.70889 3.04198 6959 ft 220 kts 239°
2026-05-05 22:25 39.70100 3.02538 6954 ft 209 kts 239°
2026-05-05 22:25 39.69356 3.00974 6955 ft 199 kts 239°
2026-05-05 22:25 39.68644 2.99477 6778 ft 196 kts 240°
2026-05-05 22:26 39.67929 2.97971 6570 ft 195 kts 239°
2026-05-05 22:26 39.67218 2.96474 6341 ft 195 kts 239°
2026-05-05 22:26 39.66522 2.95011 6202 ft 182 kts 239°
2026-05-05 22:26 39.65885 2.93673 6066 ft 167 kts 239°
2026-05-05 22:27 39.65268 2.92472 5804 ft 155 kts 236°
2026-05-05 22:27 39.64637 2.91346 5381 ft 154 kts 235°
2026-05-05 22:27 39.64004 2.90230 4997 ft 152 kts 235°
2026-05-05 22:27 39.63383 2.89103 4580 ft 155 kts 237°
2026-05-05 22:28 39.62778 2.87930 4151 ft 157 kts 238°
2026-05-05 22:28 39.62188 2.86723 3604 ft 161 kts 240°
2026-05-05 22:28 39.61606 2.85464 3072 ft 163 kts 239°
2026-05-05 22:28 39.61004 2.84253 2642 ft 162 kts 238°
2026-05-05 22:29 39.60400 2.83032 2259 ft 159 kts 239°
2026-05-05 22:29 39.59802 2.81807 1795 ft 163 kts 239°
2026-05-05 22:29 39.59213 2.80576 1497 ft 156 kts 238°
2026-05-05 22:29 39.58642 2.79393 1120 ft 155 kts 240°
2026-05-05 22:30 39.58089 2.78198 809 ft 152 kts 239°
2026-05-05 22:30 39.57537 2.77037 563 ft 149 kts 238°
2026-05-05 22:30 39.57002 2.75895 320 ft 147 kts 239°
2026-05-05 22:30 39.56473 2.74770 156 ft 146 kts 238°
2026-05-05 22:31 39.55942 2.73653 38 ft 141 kts 238°
2026-05-05 22:31 39.55472 2.72705 30 ft 105 kts 236°
2026-05-05 22:31 39.55134 2.72082 30 ft 61 kts 236°
2026-05-05 22:31 39.55073 2.71967 30 ft 14 kts 230°
2026-05-05 22:32 39.54981 2.71977 30 ft 9 kts 141°
2026-05-05 22:32 39.54965 2.71994 30 ft 2 kts 141°
2026-05-05 22:32 39.54956 2.72007 30 ft 5 kts 132°
2026-05-05 22:32 39.54893 2.72096 30 ft 16 kts 133°
2026-05-05 22:33 39.54872 2.72225 30 ft 17 kts 63°
2026-05-05 22:33 39.54935 2.72359 30 ft 18 kts 58°
2026-05-05 22:33 39.55004 2.72505 30 ft 20 kts 59°
2026-05-05 22:33 39.55075 2.72664 30 ft 20 kts 60°
2026-05-05 22:34 39.55105 2.72764 30 ft 5 kts 131°
2026-05-05 22:34 39.55078 2.72784 30 ft 4 kts 153°
2026-05-05 22:34 39.55057 2.72799 30 ft 3 kts 150°
2026-05-05 22:34 39.55056 2.72799 30 ft 0 kts 150°